SCP
-0 -0 0 -0 -0 -0 -0 -0 -0 -0 -0 -0 -0 -0 -0 -0 -0 -0 -0 -0 -0 -0 -0 -0 -0 -0 -0 -0 -0 -0 -0 -0 -0 -0 -0 -0 -0 -0 -0 0 0 0 0
-0 -0 -0 -0 -0 -0 -0 0 0 -0 0 -0 -0 -0 -0 -0 -0 -0 -0 -0 -0 -0 -0 -0 -0 -0 -0 -0 -0 -0 -0 -0 0 -0 0 0 -0 -0 0 -0 0 0 0
-0 -0 -0 -0 -0 -0 0 0 0 0 0 -0 -0 -0 -0 -0 -0 -0 -0 -0 -0 -0 -0 -0 -0 -0 -0 -0 -0 -0 -0 0 0 0 0 0 0 0 0 -0 -0 0 0
-0 -0 -0 -0 -0 0 0 0 0 0 0 -0 -0 -0 -0 -0 -0 -0 -0 -0 -0 -0 -0 -0 -0 -0 -0 -0 -0 -0 -0 0 0 0 0 0 0 -0 0 0 0 0 0
-0 -0 -0 0 0 0 -0 0 0 0 0 -0 -0 -0 -0 -0 -0 -0 -0 -0 -0 -0 -0 -0 -0 -0 -0 -0 -0 -0 0 0 0 0 0 0 0 0 0 0 0 0 0
-0 0 0 0 0 -0 -0 -0 0 0 0 -0 -0 -0 -0 -0 -0 -0 -0 -0 -0 -0 -0 -0 -0 -0 -0 -0 -0 0 -0 0 0 0 0 0 0 0 0 0 0 0 0
0 0 0 0 0 0 0 0 0 0 -0 -0 -0 -0 -0 -0 -0 -0 -0 -0 -0 -0 -0 -0 -0 -0 -0 -0 0 -0 -0 -0 0 0 0 0 0 0 0 0 0 0 0
0 0 0 0 0 0 0 0 -0 -0 -0 -0 -0 -0 -0 -0 -0 -0 -0 -0 -0 -0 -0 -0 -0 -0 -0 0 0 0 -0 -0 0 0 0 0 0 0 0 0 0 0 0
0 0 0 0 0 0 0 0 -0 -0 -0 -0 -0 -0 -0 -0 -0 -0 -0 -0 -0 -0 -0 -0 -0 -0 -0 -0 0 0 -0 -0 0 0 0 0 0 0 0 0 0 0 0
0 0 0 0 0 0 0 0 0 -0 -0 -0 -0 -0 -0 -0 -0 -0 -0 -0 -0 -0 -0 -0 -0 -0 0 0 0 0 0 0 0 0 0 0 0 0 0 0 -0 0 0
0 0 0 0 0 0 0 0 0 0 -0 -0 -0 0 0 0 0 -0 -0 -0 -0 -0 -0 -0 -0 0 0 0 0 0 0 0 0 0 0 0 0 0 0 -0 -0 -0 0
0 0 0 0 0 0 0 0 0 0 0 0 0 0 0 0 0 -0 -0 -0 -0 -0 -0 0 0 0 0 0 0 0 0 0 0 0 0 0 0 0 -0 0 0 0 0
-0 0 0 0 0 0 0 0 0 0 0 0 0 0 0 0 0 0 -0 -0 -0 -0 0 0 0 0 0 0 0 0 0 0 0 0 0 0 0 0 0 0 0 0 0
0 0 0 0 0 0 0 0 0 0 0 0 0 0 0 0 0 0 0 0 0 0 0 0 0 0 0 0 0 0 0 0 0 0 0 0 0 0 0 0 0 0 0
0 0 0 -0 0 0 0 0 0 0 0 0 0 0 0 0 0 0 0 0 0 0 0 0 0 0 0 0 0 0 0 0 0 0 0 0 0 0 0 0 0 0 0
0 0 0 0 -0 0 0 0 0 0 0 0 0 0 0 0 0 0 0 0 0 0 0 0 0 0 0 0 0 0 0 0 0 0 0 0 0 0 0 0 0 0 0
-0 0 0 0 0 0 0 0 0 0 0 0 0 0 0 0 0 0 0 0 0 0 0 0 0 0 0 0 0 0 0 0 0 0 0 0 0 0 0 0 0 0 0
0 0 0 0 0 0 0 0 0 0 0 0 0 0 0 0 0 0 0 0 0 0 0 0 0 0 0 0 0 0 0 0 0 0 0 0 0 0 0 0 0 0 0
0 0 0 0 0 0 0 0 0 0 0 0 0 0 0 0 0 0 0 0 0 0 0 0 0 0 0 0 0 0 0 0 0 0 0 0 0 0 0 0 0 0 0
0 0 0 0 0 0 0 0 0 0 0 0 0 0 0 0 0 0 0 0 0 0 0 0 0 0 0 0 0 0 0 0 0 0 0 0 0 0 0 0 0 0 0
0 0 0 0 0 0 0 0 0 0 0 0 0 0 0 0 0 0 0 0 0 0 0 0 0 0 0 0 0 0 0 0 0 0 0 0 0 0 0 0 0 0 0
0 0 0 0 0 0 0 0 0 0 0 0 0 0 0 0 0 0 0 0 0 0 0 0 0 0 0 0 0 0 0 0 0 0 0 0 0 0 0 0 0 0 0
0 0 0 0 0 0 0 0 0 0 0 0 0 0 0 0 0 0 0 0 0 0 0 0 0 0 0 0 0 0 0 0 0 0 0 0 0 0 0 0 0 0 0
0 0 0 0 0 0 0 0 0 0 0 0 0 0 0 0 0 0 0 0 0 0 0 0 0 0 0 0 0 0 0 0 0 0 0 0 0 0 0 0 0 0 0
0 0 0 0 0 0 0 0 0 0 0 0 0 0 0 0 0 0 0 0 0 0 0 0 0 0 0 0 0 0 0 0 0 0 0 0 0 0 0 0 0 0 0
0 0 0 0 0 0 0 0 0 0 0 0 0 0 0 0 0 0 0 0 0 0 0 0 0 0 0 0 0 0 0 0 0 0 0 0 0 0 0 0 0 0 0
Wind_Speed_500mb
21 25 23 12 6 11 17 21 19 19 23 19 20 21 20 19 20 23 27 31 29 33 28 26 25 25 24 23 22 25 25 27 31 41 37 38 38 34 36 43 34 36 38
28 25 19 11 13 16 16 19 22 23 23 17 14 17 19 24 29 28 29 32 31 32 30 28 27 26 24 25 25 24 27 32 37 43 40 37 38 38 40 46 36 36 41
30 24 19 11 12 14 15 15 16 19 20 18 15 17 23 28 25 26 26 28 34 33 29 29 28 29 29 27 26 27 27 30 37 46 37 34 37 37 34 32 29 33 34
28 24 20 15 13 16 18 17 21 23 24 22 22 23 25 26 26 23 21 26 32 32 32 31 33 31 30 31 33 34 35 34 42 35 27 27 29 35 35 34 33 33 35
30 25 20 16 15 20 21 23 25 31 26 25 25 27 27 23 22 23 20 25 28 30 29 31 33 35 36 36 35 33 33 39 41 31 28 27 28 34 34 35 34 34 34
30 26 23 19 18 20 20 19 22 30 27 22 22 25 21 20 17 21 23 27 29 29 29 30 34 34 36 36 37 37 34 42 28 28 27 29 33 34 35 35 35 35 35
28 27 25 22 20 24 20 14 20 27 30 22 20 18 16 18 20 20 24 26 27 28 28 30 31 32 32 34 35 35 35 39 29 29 31 31 35 36 35 35 36 36 37
28 26 27 24 21 26 23 17 15 26 28 24 15 19 18 18 19 21 23 26 25 26 25 26 28 30 31 31 31 32 32 37 27 28 27 32 31 32 32 32 32 33 35
28 25 25 25 23 25 29 21 15 20 27 23 16 15 17 19 19 20 23 22 22 24 24 24 26 27 28 29 31 32 32 32 26 29 23 28 29 28 30 30 30 33 35
31 27 21 23 23 23 27 28 21 17 27 23 17 16 17 19 20 19 18 20 20 22 22 23 24 24 26 27 27 26 25 30 23 22 24 27 27 29 31 31 33 34 37
32 28 27 24 25 21 23 24 25 20 20 20 18 14 15 17 16 16 17 18 17 19 20 20 20 20 22 24 23 21 26 20 18 21 21 27 28 29 29 30 30 30 30
42 33 32 32 28 26 22 22 23 21 20 16 17 13 11 12 13 14 14 14 13 15 16 16 16 16 20 13 16 20 18 20 16 19 22 27 29 30 32 31 31 30 28
43 42 39 34 29 26 24 24 22 21 21 18 16 14 13 12 11 9 9 9 9 10 12 13 13 14 13 13 16 18 20 17 16 18 23 30 31 31 32 30 30 30 30
46 46 42 36 33 28 26 24 22 21 19 18 18 16 12 10 10 9 6 5 5 6 7 8 8 9 11 13 15 19 20 18 19 19 26 28 31 30 28 27 26 32 35
45 50 48 37 34 31 31 28 26 24 22 20 18 16 13 11 9 8 6 3 2 1 2 1 2 4 7 12 15 16 19 21 20 20 20 27 28 26 27 31 35 34 37
37 49 50 50 38 31 32 31 30 27 26 21 19 17 14 13 11 9 6 5 4 2 3 1 1 6 11 15 17 22 21 20 18 22 19 23 22 23 26 30 31 37 40
45 41 48 47 45 35 33 33 30 29 26 25 22 21 20 16 14 12 9 8 7 6 3 2 10 13 14 15 19 16 22 19 16 19 13 11 22 24 22 31 33 40 36
48 49 43 46 47 43 38 34 30 30 30 27 26 24 24 22 20 18 11 9 11 6 3 6 11 16 16 17 17 15 13 13 15 11 11 13 15 14 31 36 35 33 32
48 48 49 45 45 44 41 38 34 30 29 28 29 26 28 26 23 18 16 17 14 11 9 11 15 17 19 15 18 16 12 7 7 13 10 13 19 20 28 31 31 29 31
47 47 48 50 50 49 46 44 41 40 38 32 30 28 28 23 17 16 14 17 16 13 14 16 18 18 22 22 14 10 7 2 8 8 12 4 18 28 24 23 26 31 31
48 49 52 55 54 54 54 53 50 47 45 41 36 41 30 23 22 23 20 19 19 15 16 16 19 21 20 21 13 8 1 6 2 3 9 9 23 30 26 25 27 30 41
54 54 52 58 59 61 59 55 54 52 49 48 42 34 31 31 28 28 27 22 23 21 24 21 22 22 24 25 15 7 7 4 8 13 8 17 24 25 22 25 26 38 45
66 66 64 67 65 65 64 59 57 49 47 47 46 44 39 37 35 33 30 26 30 29 27 25 28 26 31 25 15 8 6 7 10 13 16 19 23 24 19 26 28 40 42
74 70 69 69 71 70 67 66 64 64 61 56 52 43 45 43 41 35 33 33 35 34 33 36 34 32 33 31 19 16 15 14 5 4 17 23 22 21 19 25 27 37 38
77 81 81 79 76 75 74 72 70 67 65 56 53 54 52 44 42 41 38 39 41 43 44 41 38 37 37 32 27 19 19 16 15 15 12 16 19 18 21 25 28 33 34
75 81 86 88 86 84 81 80 79 76 70 64 62 64 61 56 53 49 46 43 42 41 44 42 39 43 38 33 28 24 20 17 15 16 14 14 14 18 16 18 26 28 29
Wind_Direction_500mb
151 150 140 143 128 122 134 139 135 139 125 119 118 102 90 88 94 93 92 87 88 91 86 83 77 72 72 73 75 77 75 69 63 58 73 68 60 61 67 57 55 54 54
145 148 144 143 117 121 133 143 148 151 147 132 120 101 86 92 94 90 93 93 84 83 82 80 76 74 73 73 75 78 78 75 69 67 44 55 63 59 72 65 55 53 61
151 151 140 129 115 114 123 129 141 141 138 140 130 117 105 104 93 96 85 88 87 85 81 80 78 72 68 69 74 77 79 79 82 75 64 52 49 55 66 63 62 53 49
155 144 149 139 130 121 117 110 113 121 129 138 123 116 111 107 110 101 97 92 90 84 79 78 72 70 72 76 78 81 81 84 81 81 68 61 53 57 57 55 54 49 48
142 158 146 134 127 116 110 101 109 111 109 115 125 125 122 122 118 110 104 95 91 87 81 77 74 72 71 75 75 75 79 79 73 64 69 68 57 55 55 52 49 46 44
152 163 146 136 125 110 106 105 118 124 114 115 124 125 121 121 117 94 101 93 85 83 83 78 74 74 73 74 72 71 73 76 71 69 65 56 59 56 51 47 45 42 39
172 161 148 140 133 122 132 118 116 129 127 131 128 132 118 110 106 103 96 91 86 83 80 78 75 73 72 70 70 71 73 77 70 67 60 59 58 53 48 43 40 37 35
167 165 156 147 142 141 140 141 129 137 141 136 140 121 117 113 110 104 99 88 85 85 85 80 75 72 71 71 72 71 69 77 66 66 55 50 49 44 40 35 32 30 26
168 167 167 158 150 153 157 155 149 139 143 136 147 131 118 109 112 102 94 93 87 83 82 79 75 72 72 72 72 72 70 68 59 60 52 41 35 40 26 20 20 23 19
164 165 177 171 158 159 161 165 166 147 154 156 153 120 108 106 103 104 102 93 87 83 82 77 74 73 72 68 65 62 61 52 47 46 28 26 22 21 18 11 11 13 6
167 172 180 173 156 159 166 166 171 165 156 161 153 133 108 104 106 98 97 96 92 85 80 77 75 73 73 65 56 50 51 48 42 37 14 11 8 6 5 360 2 1 354
184 172 186 176 163 161 167 164 168 166 164 170 159 139 135 132 127 107 101 97 92 86 79 74 70 68 60 46 29 33 33 36 20 16 2 0 358 354 356 353 358 355 356
188 185 185 178 174 174 171 169 167 170 174 171 167 168 164 145 134 110 101 86 81 72 61 57 50 59 57 54 36 17 16 18 15 6 345 352 351 350 355 360 1 1 354
193 194 186 180 178 180 179 177 178 177 175 179 179 178 172 167 157 146 141 128 91 77 61 52 37 38 38 17 11 15 9 8 359 360 334 347 349 352 359 2 356 348 348
198 199 189 181 183 190 191 184 183 187 186 189 192 188 183 185 182 178 181 170 166 100 83 62 8 359 5 354 348 353 354 349 350 349 342 345 348 353 352 350 346 349 349
199 205 198 192 179 196 191 197 198 194 198 198 199 203 211 211 205 214 226 234 247 230 268 267 24 348 335 338 349 338 341 338 340 342 350 343 351 349 348 344 349 345 343
206 201 208 202 186 196 196 202 202 209 210 210 214 218 218 219 222 222 232 240 240 257 272 328 339 346 344 328 327 338 337 332 333 341 2 19 351 347 348 346 345 346 350
202 206 210 208 207 203 202 203 205 211 211 218 227 236 239 239 243 241 238 241 248 230 227 325 327 332 328 324 327 319 335 332 343 16 16 1 5 357 343 347 345 346 348
201 200 203 207 209 214 217 219 217 220 214 217 223 226 237 248 249 244 236 217 233 246 287 299 305 318 321 321 311 332 332 301 36 14 4 4 0 350 342 343 346 357 355
204 203 205 209 208 210 215 219 224 229 229 224 218 223 233 248 238 238 240 242 243 258 265 286 297 308 312 307 326 347 311 73 100 16 357 38 355 344 350 359 357 357 2
209 206 207 210 213 213 215 217 220 222 224 223 225 227 238 235 239 247 247 252 253 264 274 286 295 298 304 305 343 328 309 150 89 335 337 343 342 349 354 358 4 8 358
210 209 209 214 217 220 221 224 228 233 235 236 236 240 237 241 239 238 248 255 259 258 265 270 285 291 288 291 301 332 187 249 297 310 319 328 340 347 352 2 6 3 1
213 214 213 219 220 223 224 225 228 231 232 233 230 233 231 236 234 242 244 251 254 261 264 271 278 278 279 279 280 259 217 205 266 287 304 329 338 346 356 357 2 2 2
221 218 223 221 223 225 225 225 229 228 228 230 235 242 236 239 245 239 248 255 255 256 262 271 273 268 264 265 272 265 250 257 212 224 304 318 330 342 350 352 357 359 1
226 229 228 227 227 229 229 229 231 232 236 240 236 239 234 235 241 245 251 252 257 261 262 264 267 264 259 254 263 254 254 257 264 255 264 281 323 332 335 346 352 356 1
231 231 231 233 233 232 233 233 234 235 236 235 234 234 238 236 238 245 253 255 257 258 258 261 262 263 252 249 252 250 252 259 262 252 252 279 290 297 311 330 349 354 0
Wind_Speed_850mb
21 25 23 12 6 11 17 21 19 19 23 19 20 21 20 19 20 23 27 31 29 33 28 26 25 25 24 23 22 25 25 27 31 41 37 38 38 34 36 43 34 36 38
28 25 19 11 13 16 16 19 22 23 23 17 14 17 19 24 29 28 29 32 31 32 30 28 27 26 24 25 25 24 27 32 37 43 40 37 38 38 40 46 36 36 41
30 24 19 11 12 14 15 15 16 19 20 18 15 17 23 28 25 26 26 28 34 33 29 29 28 29 29 27 26 27 27 30 37 46 37 34 37 37 34 32 29 33 34
28 24 20 15 13 16 18 17 21 23 24 22 22 23 25 26 26 23 21 26 32 32 32 31 33 31 30 31 33 34 35 34 42 35 27 27 29 35 35 34 33 33 35
30 25 20 16 15 20 21 23 25 31 26 25 25 27 27 23 22 23 20 25 28 30 29 31 33 35 36 36 35 33 33 39 41 31 28 27 28 34 34 35 34 34 34
30 26 23 19 18 20 20 19 22 30 27 22 22 25 21 20 17 21 23 27 29 29 29 30 34 34 36 36 37 37 34 42 28 28 27 29 33 34 35 35 35 35 35
28 27 25 22 20 24 20 14 20 27 30 22 20 18 16 18 20 20 24 26 27 28 28 30 31 32 32 34 35 35 35 39 29 29 31 31 35 36 35 35 36 36 37
28 26 27 24 21 26 23 17 15 26 28 24 15 19 18 18 19 21 23 26 25 26 25 26 28 30 31 31 31 32 32 37 27 28 27 32 31 32 32 32 32 33 35
28 25 25 25 23 25 29 21 15 20 27 23 16 15 17 19 19 20 23 22 22 24 24 24 26 27 28 29 31 32 32 32 26 29 23 28 29 28 30 30 30 33 35
31 27 21 23 23 23 27 28 21 17 27 23 17 16 17 19 20 19 18 20 20 22 22 23 24 24 26 27 27 26 25 30 23 22 24 27 27 29 31 31 33 34 37
32 28 27 24 25 21 23 24 25 20 20 20 18 14 15 17 16 16 17 18 17 19 20 20 20 20 22 24 23 21 26 20 18 21 21 27 28 29 29 30 30 30 30
42 33 32 32 28 26 22 22 23 21 20 16 17 13 11 12 13 14 14 14 13 15 16 16 16 16 20 13 16 20 18 20 16 19 22 27 29 30 32 31 31 30 28
43 42 39 34 29 26 24 24 22 21 21 18 16 14 13 12 11 9 9 9 9 10 12 13 13 14 13 13 16 18 20 17 16 18 23 30 31 31 32 30 30 30 30
46 46 42 36 33 28 26 24 22 21 19 18 18 16 12 10 10 9 6 5 5 6 7 8 8 9 11 13 15 19 20 18 19 19 26 28 31 30 28 27 26 32 35
45 50 48 37 34 31 31 28 26 24 22 20 18 16 13 11 9 8 6 3 2 1 2 1 2 4 7 12 15 16 19 21 20 20 20 27 28 26 27 31 35 34 37
37 49 50 50 38 31 32 31 30 27 26 21 19 17 14 13 11 9 6 5 4 2 3 1 1 6 11 15 17 22 21 20 18 22 19 23 22 23 26 30 31 37 40
45 41 48 47 45 35 33 33 30 29 26 25 22 21 20 16 14 12 9 8 7 6 3 2 10 13 14 15 19 16 22 19 16 19 13 11 22 24 22 31 33 40 36
48 49 43 46 47 43 38 34 30 30 30 27 26 24 24 22 20 18 11 9 11 6 3 6 11 16 16 17 17 15 13 13 15 11 11 13 15 14 31 36 35 33 32
48 48 49 45 45 44 41 38 34 30 29 28 29 26 28 26 23 18 16 17 14 11 9 11 15 17 19 15 18 16 12 7 7 13 10 13 19 20 28 31 31 29 31
47 47 48 50 50 49 46 44 41 40 38 32 30 28 28 23 17 16 14 17 16 13 14 16 18 18 22 22 14 10 7 2 8 8 12 4 18 28 24 23 26 31 31
48 49 52 55 54 54 54 53 50 47 45 41 36 41 30 23 22 23 20 19 19 15 16 16 19 21 20 21 13 8 1 6 2 3 9 9 23 30 26 25 27 30 41
54 54 52 58 59 61 59 55 54 52 49 48 42 34 31 31 28 28 27 22 23 21 24 21 22 22 24 25 15 7 7 4 8 13 8 17 24 25 22 25 26 38 45
66 66 64 67 65 65 64 59 57 49 47 47 46 44 39 37 35 33 30 26 30 29 27 25 28 26 31 25 15 8 6 7 10 13 16 19 23 24 19 26 28 40 42
74 70 69 69 71 70 67 66 64 64 61 56 52 43 45 43 41 35 33 33 35 34 33 36 34 32 33 31 19 16 15 14 5 4 17 23 22 21 19 25 27 37 38
77 81 81 79 76 75 74 72 70 67 65 56 53 54 52 44 42 41 38 39 41 43 44 41 38 37 37 32 27 19 19 16 15 15 12 16 19 18 21 25 28 33 34
75 81 86 88 86 84 81 80 79 76 70 64 62 64 61 56 53 49 46 43 42 41 44 42 39 43 38 33 28 24 20 17 15 16 14 14 14 18 16 18 26 28 29
Wind_Direction_850mb
151 150 140 143 128 122 134 139 135 139 125 119 118 102 90 88 94 93 92 87 88 91 86 83 77 72 72 73 75 77 75 69 63 58 73 68 60 61 67 57 55 54 54
145 148 144 143 117 121 133 143 148 151 147 132 120 101 86 92 94 90 93 93 84 83 82 80 76 74 73 73 75 78 78 75 69 67 44 55 63 59 72 65 55 53 61
151 151 140 129 115 114 123 129 141 141 138 140 130 117 105 104 93 96 85 88 87 85 81 80 78 72 68 69 74 77 79 79 82 75 64 52 49 55 66 63 62 53 49
155 144 149 139 130 121 117 110 113 121 129 138 123 116 111 107 110 101 97 92 90 84 79 78 72 70 72 76 78 81 81 84 81 81 68 61 53 57 57 55 54 49 48
142 158 146 134 127 116 110 101 109 111 109 115 125 125 122 122 118 110 104 95 91 87 81 77 74 72 71 75 75 75 79 79 73 64 69 68 57 55 55 52 49 46 44
152 163 146 136 125 110 106 105 118 124 114 115 124 125 121 121 117 94 101 93 85 83 83 78 74 74 73 74 72 71 73 76 71 69 65 56 59 56 51 47 45 42 39
172 161 148 140 133 122 132 118 116 129 127 131 128 132 118 110 106 103 96 91 86 83 80 78 75 73 72 70 70 71 73 77 70 67 60 59 58 53 48 43 40 37 35
167 165 156 147 142 141 140 141 129 137 141 136 140 121 117 113 110 104 99 88 85 85 85 80 75 72 71 71 72 71 69 77 66 66 55 50 49 44 40 35 32 30 26
168 167 167 158 150 153 157 155 149 139 143 136 147 131 118 109 112 102 94 93 87 83 82 79 75 72 72 72 72 72 70 68 59 60 52 41 35 40 26 20 20 23 19
164 165 177 171 158 159 161 165 166 147 154 156 153 120 108 106 103 104 102 93 87 83 82 77 74 73 72 68 65 62 61 52 47 46 28 26 22 21 18 11 11 13 6
167 172 180 173 156 159 166 166 171 165 156 161 153 133 108 104 106 98 97 96 92 85 80 77 75 73 73 65 56 50 51 48 42 37 14 11 8 6 5 360 2 1 354
184 172 186 176 163 161 167 164 168 166 164 170 159 139 135 132 127 107 101 97 92 86 79 74 70 68 60 46 29 33 33 36 20 16 2 0 358 354 356 353 358 355 356
188 185 185 178 174 174 171 169 167 170 174 171 167 168 164 145 134 110 101 86 81 72 61 57 50 59 57 54 36 17 16 18 15 6 345 352 351 350 355 360 1 1 354
193 194 186 180 178 180 179 177 178 177 175 179 179 178 172 167 157 146 141 128 91 77 61 52 37 38 38 17 11 15 9 8 359 360 334 347 349 352 359 2 356 348 348
198 199 189 181 183 190 191 184 183 187 186 189 192 188 183 185 182 178 181 170 166 100 83 62 8 359 5 354 348 353 354 349 350 349 342 345 348 353 352 350 346 349 349
199 205 198 192 179 196 191 197 198 194 198 198 199 203 211 211 205 214 226 234 247 230 268 267 24 348 335 338 349 338 341 338 340 342 350 343 351 349 348 344 349 345 343
206 201 208 202 186 196 196 202 202 209 210 210 214 218 218 219 222 222 232 240 240 257 272 328 339 346 344 328 327 338 337 332 333 341 2 19 351 347 348 346 345 346 350
202 206 210 208 207 203 202 203 205 211 211 218 227 236 239 239 243 241 238 241 248 230 227 325 327 332 328 324 327 319 335 332 343 16 16 1 5 357 343 347 345 346 348
201 200 203 207 209 214 217 219 217 220 214 217 223 226 237 248 249 244 236 217 233 246 287 299 305 318 321 321 311 332 332 301 36 14 4 4 0 350 342 343 346 357 355
204 203 205 209 208 210 215 219 224 229 229 224 218 223 233 248 238 238 240 242 243 258 265 286 297 308 312 307 326 347 311 73 100 16 357 38 355 344 350 359 357 357 2
209 206 207 210 213 213 215 217 220 222 224 223 225 227 238 235 239 247 247 252 253 264 274 286 295 298 304 305 343 328 309 150 89 335 337 343 342 349 354 358 4 8 358
210 209 209 214 217 220 221 224 228 233 235 236 236 240 237 241 239 238 248 255 259 258 265 270 285 291 288 291 301 332 187 249 297 310 319 328 340 347 352 2 6 3 1
213 214 213 219 220 223 224 225 228 231 232 233 230 233 231 236 234 242 244 251 254 261 264 271 278 278 279 279 280 259 217 205 266 287 304 329 338 346 356 357 2 2 2
221 218 223 221 223 225 225 225 229 228 228 230 235 242 236 239 245 239 248 255 255 256 262 271 273 268 264 265 272 265 250 257 212 224 304 318 330 342 350 352 357 359 1
226 229 228 227 227 229 229 229 231 232 236 240 236 239 234 235 241 245 251 252 257 261 262 264 267 264 259 254 263 254 254 257 264 255 264 281 323 332 335 346 352 356 1
231 231 231 233 233 232 233 233 234 235 236 235 234 234 238 236 238 245 253 255 257 258 258 261 262 263 252 249 252 250 252 259 262 252 252 279 290 297 311 330 349 354 0